Location: Julian California
(33.0790°N, 116.6010°W)
Time: 13:49:49
(UTC-07:00)

Cosmos 1697 Rocket - Pass Details

Date: 30 March 2019
Orbit: 834 x 842 km, 71.0° (Epoch: 20 April)

Event Time Altitude Azimuth Distance (km) Brightness Sun altitude
Rises 19:38:53 0° 249° (WSW) 3,385 7.0 -7.8°
Reaches altitude 10° 19:42:41 10° 275° (W) 2,453 6.8 -8.6°
Maximum altitude 19:45:26 14° 304° (NW) 2,201 6.0 -9.2°
Drops below altitude 10° 19:48:12 10° 334° (NNW) 2,456 5.7 -9.7°
Sets 19:52:02 0° 0° (N) 3,393 6.0 -10.5°
